Other Public Products
Issued by NWS Charleston, SC

Current Version | Previous Version | Graphics & Text | Print | Product List | Glossary On
Versions: 1 2 3 4 5 6 7 8 9 10 11 12 13 14 15 16 17 18 19 20 21 22 23 24 25 26 27 28 29 30 31 32 33 34 35 36 37 38 39 40 41 42 43 44 45 46 47 48 49 50
000 FPUS82 KCHS 240828 OPUCHS TEST...KCHS/KSAV Gateway Observations...TEST National Weather Service Charleston SC 400 AM EDT SUN SEP 24 2017 NOTE: "fair" indicates few or no clouds below 12,000 feet with no significant weather and/or obstructions to visibility. SCZ050-WAZ558-NCZ071-TXZ119-213-PAZ071-DCZ001-FLZ074-172-MI076- NYZ176-178-MAZ016-IL014-TNZ027-NJZ106-GAZ044-MD014-240900- ...Gateway Observations for Charleston International... CITY SKY/WX TMP DP RH WIND PRES REMARKS Chas Airport CLEAR 70 69 97 NE6 29.97S Seattle CLEAR 56 48 74 CALM 30.13S Charlotte PTCLDY 67 63 87 N3 30.07S Dallas DFW PTCLDY 78 68 71 S9 29.88R Dallas Love PTCLDY 79 68 69 S10 29.89S Philladelphia CLEAR 70 60 70 CALM 30.04S Wash National MOCLDY 69 62 78 CALM 30.07S Baltimore PTCLDY 63 60 90 W3 30.05S Miami PTCLDY 81 79 94 N3 29.81S HX 90 Detroit CLEAR 69 63 81 CALM 30.15R Newark CLEAR 69 59 70 NE3 30.04S Laguardia CLEAR 72 60 66 CALM 30.03S J F K CLEAR 65 59 81 CALM 30.05R Boston Logan CLEAR 62 61 96 CALM 30.03S Ft. Lauderdale MOCLDY 81 77 88 NW5 29.80F Chicago O`Hare CLEAR 72 65 78 CALM 30.07S Chicago Midway CLEAR 77 65 66 SE5 30.07S Houston Bush CLEAR 75 73 93 CALM 29.89S Houston Hobby PTCLDY 76 72 87 CALM 29.88S Nashville CLEAR 70 68 93 CALM 30.02S Atlanta PTCLDY 72 65 78 NE3 30.03S $$ GAZ044-118-TXZ119-213-NCZ071-DCZ001-MDZ014-506-PAZ021-071-NJZ106- NYZ176-178-MAZ106-OHZ011-021-055-MIZ076-KYZ091-ILZ014-INZ047- MNZ060-ONZ431-240900- ...Gateway Observations for Savannah International... CITY SKY/WX TMP DP RH WIND PRES REMARKS Savannah Arpt CLEAR 69 69 100 N6 29.97S FOG Atlanta PTCLDY 72 65 78 NE3 30.03S Charlotte PTCLDY 67 63 87 N3 30.07S Dallas DFW PTCLDY 78 68 71 S9 29.88R Houston Bush CLEAR 75 73 93 CALM 29.89S Wash National MOCLDY 69 62 78 CALM 30.07S Wash Dulles PTCLDY 63 61 93 NW5 30.08S Baltimore PTCLDY 63 60 90 W3 30.05S Philadelphia CLEAR 70 60 70 CALM 30.04S Newark CLEAR 69 59 70 NE3 30.04S Laguardia CLEAR 72 60 66 CALM 30.03S J F K CLEAR 65 59 81 CALM 30.05R Boston CLEAR 62 61 96 CALM 30.03S Pittsburg CLEAR 65 59 81 CALM 30.14S Akron CLEAR 68 60 75 NE3 30.15S Cleveland CLEAR 69 60 73 CALM 30.15R Cincinnati CLEAR 71 64 78 NE5 30.09R Columbus CLEAR 64 60 86 NE3 30.11S Detroit CLEAR 69 63 81 CALM 30.15R Chicago O`Hare CLEAR 72 65 78 CALM 30.07S Minneapolis CLEAR 77 65 66 S10 29.94S Indianapolis CLEAR 70 64 81 NE8 30.08S Toronto Canada CLEAR 72 64 78 NW5 30.12R $$

USA.gov is the U.S. government's official web portal to all federal, state and local government web resources and services.